World > North America > United States > Iowa > Moorhead  

Moorhead, IA Hourly Weather Updates

Feedback E-mail the Weather

Quick Clicks

Moorhead, IA Weather Maps

°F °C°F °C
Moorhead Weather Map
UTC Time: 4/25/2024, 08:38
Your Time:

Moorhead, IA Regional Weather

Expires:202404250900;;336581
ASUS43 KDMX 250806
RWRIA 

WEATHER ROUNDUP FOR IOWA
NATIONAL WEATHER SERVICE DES MOINES IA
300 AM CDT THU APR 25 2024

NOTE: "FAIR" INDICATES FEW OR NO CLOUDS BELOW 12,000 FEET WITH NO
SIGNIFICANT WEATHER AND/OR OBSTRUCTIONS TO VISIBILITY.

* - THESE STATIONS ARE NOT NWS STATIONS...THUS NOT UNDER NWS
QUALITY CONTROL.  THEY ALSO DO NOT REPORT WEATHER SUCH 
AS PRECIPITATION OR FOG.  


IAZ001>003-012>014-020>022-031>034-043>046-250900-
   NORTHWEST IOWA
  
CITY           SKY/WX    TMP DP  RH WIND       PRES   REMARKS
CARROLL *      CLOUDY    52  30  43 SE9       30.13F TC  11           
DENISON *      CLOUDY    54  37  54 SE14G22   30.11F TC  12           
LE MARS *      CLOUDY   N/A N/A N/A E13       30.07S                  
MAURICE *      CLOUDY    54  32  43 SE21      30.06F TC  12           
SHELDON *      CLOUDY    54  28  37 SE20      30.07F TC  12           
SIOUX CITY     CLOUDY    55  39  54 SE12      30.07F TC  13           
SPENCER        LGT RAIN  54  26  34 SE16      30.12F TC  12           
STORM LAKE *   CLOUDY    52  27  37 SE14      30.13S TC  11           
$$
 

SKY/WX - Weather  TMP - Temperature  DP - Dew Point  RH - Humidity
WIND - Wind Direction/Speed PRES - Barometric Pressure VSB - Visibility
WCI - Wind Chill Index E13G22 Wind - East Wind 13 mph/Gusts of 22 mph

Trending Headlines

Trending Entertainment Headlines

Moorhead Radar Loop

Use the map search tool if you want to place a location marker on the radar map...

Moorhead Quick Facts

National Two Day Weather Forecast


E-mail the Moorhead Weather Forecast

Voice your opinion or tell us about page issues...